Location: Stanley
(44.2150°N, 114.9367°W)
Time: 11:20:58
(UTC+00:00)

N. Korean satellite - Visible Passes

Search period start: 28 November 2022 00:00
Search period end: 08 December 2022 00:00
Orbit: 422 x 454 km, 97.3° (Epoch: 28 November)

Date Brightness Start Highest point End Pass type
(mag) Time Alt. Az. Time Alt. Az. Time Alt. Az.
28 Nov 9.0 00:47:18 10° SSW 00:50:07 25° W 00:52:59 10° NW visible
28 Nov 9.5 12:06:05 10° NE 12:08:13 15° E 12:10:20 10° SE visible
28 Nov 7.1 13:37:45 10° N 13:40:50 31° WNW 13:43:52 10° SW visible
29 Nov 6.5 12:58:49 10° NNE 13:02:15 78° E 13:05:38 10° S visible
30 Nov 9.6 01:03:06 10° SW 01:05:21 17° W 01:07:37 10° NW visible
30 Nov 8.9 12:20:37 10° NE 12:23:25 23° E 12:26:12 10° SSE visible
30 Nov 7.7 13:53:12 10° NNW 13:55:50 21° WNW 13:58:26 10° WSW visible
01 Dec 6.3 13:13:51 10° N 13:17:16 65° WNW 13:20:36 10° SSW visible
02 Dec 10.0 01:19:26 10° WSW 01:20:27 11° W 01:21:29 10° WNW visible
02 Dec 8.0 12:35:15 10° NNE 12:38:26 35° E 12:41:34 10° SSE visible
02 Dec 8.1 14:08:43 10° NNW 14:10:38 14° WNW 14:12:32 10° W visible
03 Dec 8.5 00:38:19 10° SSW 00:41:23 33° W 00:44:30 10° NNW visible
03 Dec 9.8 11:57:59 10° ENE 11:59:21 12° E 12:00:43 10° ESE visible
03 Dec 6.8 13:28:51 10° N 13:32:05 40° WNW 13:35:15 10° SW visible
04 Dec 7.0 12:49:54 10° NNE 12:53:16 57° E 12:56:35 10° S visible
05 Dec 9.3 00:53:32 10° SSW 00:56:13 22° W 00:58:55 10° NW visible
05 Dec 9.3 12:11:48 10° NE 12:14:12 18° E 12:16:33 10° SE visible
05 Dec 7.3 13:43:48 10° NNW 13:46:42 26° WNW 13:49:34 10° SW visible
06 Dec 6.3 13:04:30 10° NNE 13:07:55 88° W 13:11:15 10° SSW visible
07 Dec 9.7 01:08:56 10° SW 01:10:55 15° W 01:12:54 10° NW visible
07 Dec 8.6 12:25:56 10° NE 12:28:51 26° E 12:31:43 10° SSE visible
07 Dec 7.8 13:58:46 10° NNW 14:01:10 18° WNW 14:03:31 10° WSW visible
